Zurück zum Katalog

SL-12 R/B

AUX MOTOR

AktivHEO
NORAD 28920·ROCKET BODY·🇷🇺 Russia

Gestartet Dec 25, 2005 von Baikonur Cosmodrome

Loading…

Nächste Überflüge (nächste 24 Stunden)

TLE

AktuellSource: Space-Track

Epoche: Sep 13, 2026, 17:03 UTC

1 28920U 05050F   26256.71050383  .00000523  00000-0  96593-3 0  9994
2 28920  65.2489  33.1070 5779872 161.2986 234.6750  4.21666748318967

Verfolge SL-12 R/B in Echtzeit mit AllMySat

Download on the App Store